Clearfield, PA

8:34 PM EDT on April 24, 2018 (GMT -0400)
Clearfield-Lawrence

Weather History for KFIG - January, 2013

Change the Weather History Date:

Monday, January 7, 2013

  Actual Average (KDUJ) Record (KDUJ)
Temperature  
Mean Temperature 27 °F -  
Max Temperature 33 °F 29 °F 61 °F (2008)
Min Temperature 21 °F 15 °F -13 °F (2014)
Degree Days  
Heating Degree Days 38    
Moisture  
Dew Point 24 °F    
Average Humidity 79    
Maximum Humidity 92    
Minimum Humidity 66    
Precipitation  
Precipitation 0.00 in - - ()
Sea Level Pressure  
Sea Level Pressure 30.32 in    
Wind  
Wind Speed 8 mph (West)    
Max Wind Speed 13 mph    
Max Gust Speed 20 mph    
Visibility 9 miles    
Events      
Averages and records for this station are not official NWS values.
T = Trace of Precipitation, MM = Missing Value Source: NWS Daily Summary

Daily Weather History Graph

Daily Weather History Graph

Search for Another Location

Airport or City:

Astronomy

Jan. 07, 2013 Rise Set
Actual Time 7:38 AM EST 5:01 PM EST
Civil Twilight 7:07 AM EST 5:32 PM EST
Nautical Twilight 6:33 AM EST 6:06 PM EST
Astronomical Twilight 6:00 AM EST 6:40 PM EST
Moon 2:59 AM EST (1/7) 1:11 PM EST (1/7)
Length of Visible Light 10h 24m
Length of Day
9h 23m
Waning Crescent, 23% of the Moon is Illuminated
Jan 7
Waning Crescent
Jan 11
New
Jan 18
First Quarter
Jan 26
Full
Feb 3
Last Quarter

Hourly Weather History & Observations

Time (EST) Temp. Windchill Dew Point Humidity Pressure Visibility Wind Dir Wind Speed Gust Speed Precip Events Conditions
12:54 AM 33.1 °F 26.1 °F 28.0 °F 82% 30.16 in 10.0 mi West 8.1 mph - N/A   Overcast
1:54 AM 33.1 °F 24.9 °F 28.0 °F 82% 30.19 in 10.0 mi West 10.4 mph - N/A   Overcast
2:13 AM 33.8 °F 25.8 °F 28.4 °F 81% 30.16 in 10.0 mi West 10.4 mph - N/A   Overcast
2:54 AM 32.0 °F 23.0 °F 28.0 °F 85% 30.22 in 7.0 mi West 11.5 mph 19.6 mph N/A   Overcast
3:54 AM 32.0 °F 22.5 °F 27.0 °F 82% 30.25 in 10.0 mi WNW 12.7 mph - N/A   Overcast
4:54 AM 32.0 °F 25.6 °F 27.0 °F 82% 30.26 in 10.0 mi WNW 6.9 mph - N/A   Overcast
5:54 AM 30.9 °F 22.8 °F 26.1 °F 82% 30.29 in 9.0 mi West 9.2 mph - N/A   Overcast
6:23 AM 30.2 °F 24.3 °F 26.6 °F 86% 30.25 in 9.0 mi West 5.8 mph - N/A   Overcast
6:54 AM 30.9 °F 23.5 °F 27.0 °F 85% 30.31 in 8.0 mi West 8.1 mph - N/A   Overcast
7:54 AM 30.9 °F 23.5 °F 26.1 °F 82% 30.35 in 10.0 mi West 8.1 mph - N/A   Overcast
8:21 AM 30.2 °F 21.9 °F 26.6 °F 86% 30.30 in 10.0 mi WNW 9.2 mph - N/A   Overcast
8:54 AM 32.0 °F 25.6 °F 25.0 °F 75% 30.36 in 10.0 mi West 6.9 mph - N/A   Overcast
9:54 AM 32.0 °F 28.7 °F 25.0 °F 75% 30.40 in 10.0 mi WSW 3.5 mph - N/A   Overcast
10:54 AM 32.0 °F 24.2 °F 24.1 °F 73% 30.43 in 10.0 mi NW 9.2 mph - N/A   Overcast
11:54 AM 32.0 °F 23.6 °F 21.9 °F 66% 30.41 in 10.0 mi WNW 10.4 mph - N/A   Overcast
12:54 PM 32.0 °F 26.4 °F 23.0 °F 69% 30.40 in 10.0 mi Variable 5.8 mph - N/A   Overcast
2:54 PM 30.9 °F 26.2 °F 23.0 °F 72% 30.39 in 10.0 mi WNW 4.6 mph - N/A   Overcast
3:54 PM 30.9 °F 27.5 °F 23.0 °F 72% 30.39 in 10.0 mi West 3.5 mph - N/A   Overcast
4:54 PM 30.9 °F 27.5 °F 21.9 °F 69% 30.39 in 10.0 mi WSW 3.5 mph - N/A   Overcast
6:54 PM 30.0 °F 23.2 °F 21.9 °F 72% 30.38 in 10.0 mi SSW 6.9 mph - N/A   Overcast
7:50 PM 28.4 °F 21.2 °F 21.2 °F 74% 30.32 in 10.0 mi SSW 6.9 mph - N/A   Scattered Clouds
7:54 PM 28.0 °F 21.7 °F 21.0 °F 75% 30.37 in 10.0 mi South 5.8 mph - N/A   Partly Cloudy
8:54 PM 26.1 °F 20.5 °F 21.0 °F 81% 30.37 in 9.0 mi SSW 4.6 mph - N/A   Clear
9:54 PM 25.0 °F - 19.9 °F 81% 30.36 in 7.0 mi Calm Calm - N/A   Clear
10:54 PM 21.0 °F - 19.0 °F 92% 30.35 in 6.0 mi Calm Calm - N/A   Clear
11:54 PM 21.0 °F - 19.0 °F 92% 30.33 in 6.0 mi Calm Calm - N/A   Clear